Location: Home
(42.5358°N, 72.7383°W)
Time: 18:27:48
(UTC-05:00)

A-11 Canister half - Pass Details

Date: 03 December 2021
Orbit: 1516 x 1684 km, 47.2° (Epoch: 18 January)

Event Time Altitude Azimuth Distance (km) Brightness Sun altitude
Rises 08:32:06 0° 257° (WSW) 4,785 11.3 12.0°
Reaches altitude 10° 08:35:10 10° 260° (W) 3,824 10.8 12.4°
Maximum altitude 08:44:59 75° 345° (NNW) 1,699 9.4 13.6°
Drops below altitude 10° 08:55:09 10° 72° (ENE) 3,939 11.5 14.9°
Sets 08:58:22 0° 74° (ENE) 4,936 12.0 15.2°
